EW1617 Weather Reports


Display with metric or nautical units.
time (UTC)temp
F
wind
direction
speed
MPH
gust
MPH
rain 1hr
in
rain 24hr
in
rain mn
in
humidity
%
barometer
mb
20260506040007 58 0 0.0 0.0 0.00 0.00 0.00 96 1015.9
20260506035507 59 0 0.0 0.0 0.00 0.00 0.00 95 1015.9
20260506035006 59 0 0.0 0.0 0.00 0.00 0.00 95 1015.9
20260506034507 59 0 0.0 0.0 0.00 0.00 0.00 95 1015.9
20260506034007 60 0 0.0 0.0 0.00 0.00 0.00 94 1015.6
20260506033507 60 0 0.0 0.0 0.00 0.00 0.00 94 1015.6
20260506033007 61 0 0.0 0.0 0.00 0.00 0.00 94 1015.6
20260506032507 61 0 0.0 0.0 0.00 0.00 0.00 93 1015.6
20260506032007 61 0 0.0 0.0 0.00 0.00 0.00 93 1015.6
20260506031507 62 0 0.0 0.0 0.00 0.00 0.00 93 1015.6
20260506031006 62 0 0.0 0.0 0.00 0.00 0.00 92 1015.6
20260506030507 62 0 0.0 0.0 0.00 0.00 0.00 92 1015.4
20260506030007 63 0 0.0 0.0 0.00 0.00 0.00 92 1015.2
20260506025507 63 0 1.0 2.0 0.00 0.00 0.00 92 1015.2
20260506025007 63 27 1.0 4.0 0.00 0.00 0.00 91 1015.2
20260506024507 64 45 0.0 0.0 0.00 0.00 0.00 91 1015.2
20260506024007 64 45 0.0 0.0 0.00 0.00 0.00 91 1015.2
20260506023508 64 45 0.0 0.0 0.00 0.00 0.00 89 1015.2
20260506023007 64 18 1.0 5.0 0.00 0.00 0.00 88 1015.2
20260506022506 64 27 3.0 6.0 0.00 0.00 0.00 86 1015.2
20260506022007 65 45 0.0 0.0 0.00 0.00 0.00 87 1015.2
20260506021507 65 45 1.0 4.0 0.00 0.00 0.00 88 1015.2
20260506021007 65 45 0.0 0.0 0.00 0.00 0.00 86 1015.2
20260506020507 65 45 0.0 0.0 0.00 0.00 0.00 82 1015.2
20260506020007 65 45 0.0 0.0 0.00 0.00 0.00 81 1015.2
20260506015507 65 45 0.0 0.0 0.00 0.00 0.00 82 1015.2
20260506015006 65 45 0.0 5.0 0.00 0.00 0.00 83 1015.2
20260506014507 65 90 2.0 5.0 0.00 0.00 0.00 83 1015.2
20260506014007 65 180 0.0 0.0 0.00 0.00 0.00 83 1015.2
20260506013507 65 180 0.0 2.0 0.00 0.00 0.00 82 1015.2
20260506013007 65 180 0.0 0.0 0.00 0.00 0.00 80 1015.2
20260506012507 65 180 3.0 5.0 0.00 0.00 0.00 79 1015.2
20260506012007 65 180 3.0 5.0 0.00 0.00 0.00 77 1015.2
20260506011507 66 90 4.0 5.0 0.00 0.00 0.00 77 1015.2
20260506011007 66 90 3.0 6.0 0.00 0.00 0.00 80 1015.2
20260506010506 66 234 4.0 6.0 0.00 0.00 0.00 82 1015.2
20260506010007 65 189 4.0 6.0 0.00 0.00 0.00 86 1015.2
20260506005506 65 90 4.0 6.0 0.00 0.00 0.00 85 1015.2
20260506005007 65 153 4.0 5.0 0.00 0.00 0.00 84 1015.2
20260506004507 65 171 4.0 6.0 0.00 0.00 0.00 85 1015.2
20260506004007 65 279 2.0 4.0 0.00 0.00 0.00 84 1015.2
20260506003507 65 270 2.0 4.0 0.00 0.00 0.00 84 1015.2
20260506003007 65 243 1.0 5.0 0.00 0.00 0.00 84 1015.2
20260506002506 65 315 2.0 4.0 0.00 0.00 0.00 83 1015.2
20260506002007 65 126 3.0 6.0 0.00 0.00 0.00 82 1015.2
20260506001507 65 217 5.0 6.0 0.00 0.00 0.00 84 1015.5
20260506001007 65 135 0.0 1.0 0.00 0.00 0.00 86 1015.6
20260506000507 65 135 1.0 4.0 0.00 0.00 0.00 86 1015.6
20260506000006 65 181 2.0 5.0 0.00 0.00 0.00 84 1015.6
20260505235507 65 261 6.0 6.0 0.00 0.00 0.00 84 1015.6
20260505235007 65 216 4.0 5.0 0.00 0.00 0.00 85 1015.6
20260505234507 65 207 3.0 5.0 0.00 0.00 0.00 86 1015.6
20260505234007 65 225 2.0 5.0 0.00 0.00 0.00 84 1015.6
20260505233508 65 169 1.0 4.0 0.00 0.00 0.00 87 1015.6
20260505233007 65 254 3.0 6.0 0.00 0.00 0.00 88 1015.6
20260505232507 65 108 1.0 2.0 0.00 0.00 0.00 89 1015.9
20260505232006 64 270 2.0 4.0 0.00 0.00 0.00 89 1015.9
20260505231507 64 135 4.0 5.0 0.00 0.00 0.00 89 1015.9
20260505231007 64 81 4.0 7.0 0.00 0.00 0.00 91 1015.9
20260505230507 64 293 2.0 5.0 0.00 0.00 0.00 92 1015.9
20260505230007 64 210 3.0 5.0 0.00 0.00 0.00 91 1015.9
20260505225507 64 297 2.0 4.0 0.00 0.00 0.00 91 1015.9
20260505225007 64 270 0.0 2.0 0.00 0.00 0.00 91 1015.9
20260505224507 64 270 3.0 5.0 0.00 0.00 0.00 92 1015.9
20260505224006 64 315 2.0 7.0 0.00 0.00 0.00 91 1015.9
20260505223507 64 297 3.0 7.0 0.00 0.00 0.00 92 1016.0
20260505223007 64 315 0.0 0.0 0.00 0.00 0.00 92 1016.3
20260505222507 64 315 2.0 5.0 0.00 0.00 0.00 91 1016.3
20260505222007 64 169 5.0 5.0 0.00 0.00 0.00 91 1016.3
20260505221507 64 135 4.0 5.0 0.00 0.00 0.00 91 1016.3
20260505221007 64 259 4.0 5.0 0.00 0.00 0.00 91 1016.3
20260505220507 64 105 4.0 5.0 0.00 0.00 0.00 91 1016.3
20260505220007 64 315 0.0 3.0 0.00 0.00 0.00 90 1016.3
20260505215507 64 315 1.0 3.0 0.00 0.00 0.00 90 1016.3
20260505215007 64 270 0.0 0.0 0.00 0.00 0.00 91 1016.3
20260505214507 64 270 1.0 1.0 0.00 0.00 0.00 90 1016.3
20260505214006 64 270 1.0 5.0 0.00 0.00 0.00 91 1016.3
20260505213507 64 285 5.0 6.0 0.00 0.00 0.00 91 1016.3
20260505213007 63 225 2.0 3.0 0.00 0.00 0.00 92 1016.3
20260505212507 63 225 2.0 4.0 0.00 0.00 0.00 92 1016.3
20260505212007 63 207 5.0 6.0 0.00 0.00 0.00 92 1016.3
20260505211507 63 355 4.0 6.0 0.00 0.00 0.00 92 1016.3
20260505211007 63 248 4.0 7.0 0.00 0.00 0.00 92 1016.3
20260505210507 63 308 5.0 6.0 0.00 0.00 0.00 92 1016.6
20260505210007 63 0 0.0 1.0 0.00 0.00 0.00 93 1016.6
20260505205507 62 0 2.0 5.0 0.00 0.00 0.00 93 1016.6
20260505205007 62 0 1.0 4.0 0.00 0.00 0.00 93 1016.6
20260505204506 63 225 1.0 2.0 0.00 0.00 0.00 92 1016.6
20260505204008 63 270 5.0 6.0 0.00 0.00 0.00 92 1016.6
20260505203507 63 203 2.0 4.0 0.00 0.00 0.00 92 1016.6
20260505202507 63 255 3.0 5.0 0.00 0.00 0.00 92 1016.6
20260505202008 63 90 2.0 3.0 0.00 0.00 0.00 92 1016.6
20260505201507 63 315 0.0 0.0 0.00 0.00 0.00 92 1016.6
20260505201007 63 315 1.0 1.0 0.00 0.00 0.00 92 1016.6
20260505200507 63 315 0.0 0.0 0.00 0.00 0.00 91 1016.6
20260505200007 63 315 0.0 0.0 0.00 0.00 0.00 91 1016.6
20260505195007 63 315 6.0 6.0 0.00 0.00 0.00 91 1016.6
20260505194507 63 225 1.0 4.0 0.00 0.00 0.00 92 1016.6
20260505194007 63 315 1.0 7.0 0.00 0.00 0.00 92 1016.7
20260505193507 63 279 2.0 7.0 0.00 0.00 0.00 91 1016.6
20260505193009 64 270 1.0 3.0 0.00 0.00 0.00 87 1016.6
20260505182506 60 225 5.0 6.0 0.00 0.00 0.00 93 1016.9
20260505182007 60 45 1.0 1.0 0.00 0.00 0.00 93 1016.9
20260505180007 59 45 5.0 5.0 0.00 0.00 0.00 94 1016.9
20260505165006 58 60 2.0 6.0 0.00 0.00 0.00 94 1016.5
20260505164507 58 180 5.0 5.0 0.00 0.00 0.00 94 1016.6
20260505164007 58 0 4.0 5.0 0.00 0.00 0.00 95 1016.4
20260505163508 58 135 3.0 4.0 0.00 0.00 0.00 95 1016.3
20260505162507 58 315 3.0 3.0 0.00 0.00 0.00 95 1016.3
20260505162007 58 158 4.0 5.0 0.00 0.00 0.00 96 1016.3
20260505161507 57 90 3.0 5.0 0.00 0.00 0.00 96 1016.3
20260505161007 57 135 2.0 7.0 0.00 0.00 0.00 96 1016.3
20260505160507 57 158 2.0 5.0 0.00 0.00 0.00 97 1016.3
20260505153007 56 169 2.0 4.0 0.00 0.00 0.00 97 1016.3
20260505152507 55 135 3.0 4.0 0.00 0.00 0.00 97 1016.3
20260505152007 55 120 5.0 5.0 0.00 0.00 0.00 97 1016.3
20260505151506 55 150 6.0 7.0 0.00 0.00 0.00 97 1016.3
20260505151007 55 135 8.0 8.0 0.00 0.00 0.00 97 1016.3
20260505150508 55 248 4.0 5.0 0.00 0.00 0.00 97 1016.3
20260505140508 54 108 5.0 6.0 0.00 0.00 0.00 97 1015.6
20260505125007 54 135 7.0 7.0 0.00 0.00 0.00 97 1015.2
20260505124507 54 144 4.0 5.0 0.00 0.00 0.00 97 1015.2
20260505124007 54 162 6.0 7.0 0.00 0.00 0.00 97 1015.2
20260505123507 54 63 1.0 4.0 0.00 0.00 0.00 97 1015.2
20260505123007 54 117 4.0 7.0 0.00 0.00 0.00 97 1015.2
20260505122507 54 135 6.0 8.0 0.00 0.00 0.00 97 1015.2
20260505122007 54 180 2.0 5.0 0.00 0.00 0.00 97 1015.2
20260505121507 54 180 1.0 4.0 0.00 0.00 0.00 97 1015.2
20260505121007 54 135 3.0 6.0 0.00 0.00 0.00 97 1015.2
20260505120507 54 135 3.0 5.0 0.00 0.00 0.00 97 1015.2
20260505120006 54 135 1.0 5.0 0.00 0.00 0.00 97 1015.2
20260505115508 54 171 3.0 5.0 0.00 0.00 0.00 97 1015.0
20260505115006 54 180 1.0 5.0 0.00 0.00 0.00 97 1015.2
20260505114507 54 126 5.0 6.0 0.00 0.00 0.00 97 1015.2
20260505114007 54 45 2.0 7.0 0.00 0.00 0.00 97 1015.1
20260505113507 54 135 4.0 7.0 0.00 0.00 0.00 97 1015.0
20260505113007 54 171 5.0 7.0 0.00 0.00 0.00 97 1014.9
20260505112507 54 171 4.0 6.0 0.00 0.00 0.00 97 1015.1
20260505112007 54 135 4.0 7.0 0.00 0.00 0.00 97 1015.2
20260505111507 54 135 6.0 7.0 0.00 0.00 0.00 97 1015.0
20260505111007 54 162 3.0 6.0 0.00 0.00 0.00 97 1014.9
20260505110508 54 180 1.0 4.0 0.00 0.00 0.00 97 1014.9
20260505102007 55 135 4.0 6.0 0.00 0.00 0.00 96 1014.6
20260505101508 55 180 6.0 8.0 0.00 0.00 0.00 96 1014.6
20260505101006 55 135 3.0 6.0 0.00 0.00 0.00 96 1014.6
20260505100507 55 108 4.0 6.0 0.00 0.00 0.00 96 1014.6
20260505100007 55 162 5.0 7.0 0.00 0.00 0.00 96 1014.6
20260505095507 55 162 1.0 3.0 0.00 0.00 0.00 96 1014.6
20260505095007 55 153 0.0 5.0 0.00 0.00 0.00 96 1014.6
20260505094507 55 171 4.0 5.0 0.00 0.00 0.00 96 1014.6
20260505094006 55 180 3.0 6.0 0.00 0.00 0.00 95 1014.6
20260505093507 56 180 6.0 6.0 0.00 0.00 0.00 95 1014.4
20260505093007 56 297 3.0 6.0 0.00 0.00 0.00 95 1014.2
20260505092507 56 171 2.0 5.0 0.00 0.00 0.00 95 1014.2
20260505092007 56 180 0.0 1.0 0.00 0.00 0.00 95 1014.2
20260505091507 56 180 1.0 3.0 0.00 0.00 0.00 95 1014.2
20260505091006 56 0 1.0 3.0 0.00 0.00 0.00 95 1014.2
20260505090507 56 144 1.0 2.0 0.00 0.00 0.00 95 1014.2
20260505090007 56 144 6.0 6.0 0.00 0.00 0.00 95 1013.9
20260505085506 56 135 0.0 1.0 0.00 0.00 0.00 95 1013.9
20260505085007 57 162 5.0 6.0 0.00 0.00 0.00 95 1014.2
20260505084507 57 153 4.0 6.0 0.00 0.00 0.00 95 1014.2
20260505084007 57 225 1.0 3.0 0.00 0.00 0.00 95 1013.9
20260505083507 57 180 2.0 5.0 0.00 0.00 0.00 96 1014.2
20260505083007 57 0 0.0 0.0 0.00 0.00 0.00 96 1013.9
20260505082507 57 0 0.0 0.0 0.00 0.00 0.00 96 1013.9
20260505082007 57 0 0.0 0.0 0.00 0.00 0.00 95 1013.9
20260505081507 57 0 0.0 0.0 0.00 0.00 0.00 95 1013.9
20260505081007 57 0 0.0 0.0 0.00 0.00 0.00 95 1013.9
20260505080508 58 0 0.0 0.0 0.00 0.00 0.00 95 1013.9
20260505080006 58 0 0.0 0.0 0.00 0.00 0.00 95 1013.9
20260505075507 58 0 0.0 0.0 0.00 0.00 0.00 95 1013.9
20260505075007 58 0 0.0 1.0 0.00 0.00 0.00 95 1013.9
20260505074507 58 0 0.0 1.0 0.00 0.00 0.00 95 1013.7
20260505074007 58 0 1.0 4.0 0.00 0.00 0.00 95 1013.6
20260505073507 58 0 1.0 3.0 0.00 0.00 0.00 94 1013.6
20260505073007 58 54 2.0 6.0 0.00 0.00 0.00 94 1013.6
20260505072507 58 180 6.0 8.0 0.00 0.00 0.00 94 1013.4
20260505072007 58 144 4.0 7.0 0.00 0.00 0.00 94 1013.2
20260505071507 59 180 2.0 4.0 0.00 0.00 0.00 95 1013.2
20260505071007 59 171 3.0 5.0 0.00 0.00 0.00 95 1013.2
20260505070507 59 72 3.0 5.0 0.00 0.00 0.00 95 1013.2
20260505070007 59 153 2.0 5.0 0.00 0.00 0.00 95 1013.2
20260505065507 58 225 0.0 2.0 0.00 0.00 0.00 96 1013.2
20260505065007 58 225 1.0 3.0 0.00 0.00 0.00 96 1012.9
20260505064507 58 225 1.0 4.0 0.00 0.00 0.00 95 1012.9
20260505064007 58 315 0.0 1.0 0.00 0.00 0.00 95 1012.9
20260505063507 59 315 0.0 0.0 0.00 0.00 0.00 95 1012.9
20260505063008 59 315 0.0 0.0 0.00 0.00 0.00 95 1012.7
20260505062507 59 315 0.0 0.0 0.00 0.00 0.00 94 1012.5
20260505062007 60 315 0.0 0.0 0.00 0.00 0.00 94 1012.5
20260505061507 60 315 0.0 0.0 0.00 0.00 0.00 94 1012.5
20260505061007 60 315 0.0 0.0 0.00 0.00 0.00 94 1012.5
20260505060507 60 315 1.0 4.0 0.00 0.00 0.00 94 1012.2
20260505060007 61 315 0.0 0.0 0.00 0.00 0.00 93 1012.2
20260505055507 61 315 0.0 1.0 0.00 0.00 0.00 93 1012.2
20260505055007 61 189 2.0 4.0 0.00 0.00 0.00 93 1012.2
20260505054507 61 288 1.0 3.0 0.00 0.00 0.00 93 1012.2
20260505054006 62 288 1.0 3.0 0.00 0.00 0.00 93 1012.2
20260505053507 62 315 1.0 4.0 0.00 0.00 0.00 92 1012.2
20260505053008 62 315 1.0 3.0 0.00 0.00 0.00 92 1012.2
20260505052507 63 279 2.0 5.0 0.00 0.00 0.00 92 1012.2
20260505052006 63 289 1.0 3.0 0.00 0.00 0.00 92 1012.2
20260505051507 63 182 4.0 7.0 0.00 0.00 0.00 92 1011.9
20260505051007 64 243 3.0 5.0 0.00 0.00 0.00 92 1011.9
20260505050507 64 315 1.0 4.0 0.00 0.00 0.00 91 1011.9
20260505041507 67 171 4.0 5.0 0.00 0.00 0.00 88 1011.2
20260505041007 67 135 4.0 5.0 0.00 0.00 0.00 87 1011.2
20260505040507 68 236 2.0 5.0 0.00 0.00 0.00 90 1010.8